This demonstration page uses our WeatherBlox Daily Observations layout. Learn more.

36.17497, -115.13722

Hourly Observations for February 13, 2015

Temp ( °F °C ) Dew Point ( °F °C ) Humidity (%) Winds ( mph kmh ) Pressure ( in mb ) Visibility ( mi km ) Precip ( " mm )
12:53 am 00:53 Clear 59 15 18 -7.8 20 20 N 12 19 30.21 1023 10 16.0934 0 0
1:53 am 01:53 Clear 59 15 16 -8.9 18 18 N 9 15 30.2 1023 10 16.0934 0 0
2:53 am 02:53 Clear 53 11.7 21 -6.1 28 28 WNW 7 11 30.21 1023 10 16.0934 0 0
3:53 am 03:53 Clear 53 11.7 19 -7.2 26 26 NW 10 17 30.2 1023 10 16.0934 0 0
4:53 am 04:53 Clear 52 11.1 21 -6.1 30 30 Calm 30.21 1023 10 16.0934 0 0
5:53 am 05:53 Clear 52 11.1 20 -6.7 28 28 NNW 8 13 30.22 1023 10 16.0934 0 0
6:53 am 06:53 Sunny 51 10.6 20 -6.7 29 29 N 5 7 30.25 1025 10 16.0934 0 0
7:53 am 07:53 Sunny 55 12.8 23 -5 29 29 NW 5 7 30.27 1025 10 16.0934 0 0
8:53 am 08:53 Sunny 62 16.7 20 -6.7 20 20 NNE 6 9 30.27 1025 10 16.0934 0 0
9:53 am 09:53 Sunny 66 18.9 21 -6.1 18 18 Calm 30.26 1025 10 16.0934 0 0
10:53 am 10:53 Sunny 69 20.6 20 -6.7 15 15 Calm 30.25 1024 10 16.0934 0 0
11:53 am 11:53 Sunny 71 21.7 18 -7.8 13 13 SE 5 7 30.21 1023 10 16.0934 0 0
12:53 pm 12:53 Sunny 72 22.2 15 -9.4 11 11 SSE 6 9 30.18 1022 10 16.0934 0 0
1:53 pm 13:53 Sunny 73 22.8 14 -10 10 10 Calm 30.15 1021 10 16.0934 0 0
2:53 pm 14:53 Sunny 75 23.9 14 -10 10 10 ESE 3 6 30.14 1021 10 16.0934 0 0
3:53 pm 15:53 Sunny 77 25 15 -9.4 9 9 Calm 30.12 1020 10 16.0934 0 0
4:53 pm 16:53 Sunny 76 24.4 14 -10 9 9 Calm 30.12 1020 10 16.0934 0 0
5:53 pm 17:53 Clear 72 22.2 17 -8.3 12 12 W 3 6 30.13 1020 10 16.0934 0 0
6:53 pm 18:53 Clear 66 18.9 23 -5 19 19 WNW 6 9 30.15 1021 10 16.0934 0 0
7:53 pm 19:53 Clear 63 17.2 24 -4.4 23 23 NNW 7 11 30.16 1021 10 16.0934 0 0
8:53 pm 20:53 Clear 61 16.1 24 -4.4 24 24 NNW 6 9 30.16 1021 10 16.0934 0 0
9:53 pm 21:53 Clear 59 15 24 -4.4 26 26 WNW 5 7 30.16 1021 10 16.0934 0 0
10:53 pm 22:53 Clear 57 13.9 25 -3.9 29 29 N 3 6 30.16 1021 10 16.0934 0 0
11:53 pm 23:53 Clear 56 13.3 24 -4.4 29 29 NW 5 7 30.16 1021 10 16.0934 0 0

Powered by AerisWeather